Weather History for Camarillo, CA

Change the Weather History Date:

Friday, February 1, 2013

  Actual Average Record
Temperature  
Mean Temperature 61 °F 54 °F  
Max Temperature 75 °F 66 °F 84 °F (1954)
Min Temperature 46 °F 42 °F 33 °F (2002)
Degree Days  
Heating Degree Days 4 11  
Month to date heating degree days 4 11  
Since 1 July heating degree days 850 1030  
Cooling Degree Days 0 0  
Month to date cooling degree days 0 0  
Year to date cooling degree days 20 7  
Growing Degree Days 10 (Base 50)    
Moisture  
Dew Point 44 °F    
Average Humidity 60    
Maximum Humidity 89    
Minimum Humidity 31    
Precipitation  
Precipitation 0.00 in 0.08 in 1.95 in (1960)
Month to date precipitation 0.00 0.08  
Year to date precipitation 1.07 3.55  
Since 1 July precipitation 3.78 7.79  
Sea Level Pressure  
Sea Level Pressure 30.16 in    
Wind  
Wind Speed 3 mph (WNW)    
Max Wind Speed 22 mph    
Max Gust Speed 25 mph    
Visibility 10 miles    
Events      
T = Trace of Precipitation, MM = Missing Value Source: NWS Daily Summary

Daily Weather History Graph

Daily Weather History Graph

Search for Another Location

Airport:

Trip Planner

Search our weather history database for the weather conditions in past years. The results will help you decide how hot, cold, wet, or windy it might be!

Date:

Astronomy

Feb. 01, 2013 Rise Set
Actual Time 6:53 AM PST 5:26 PM PST
Civil Twilight 6:27 AM PST 5:53 PM PST
Nautical Twilight 5:57 AM PST 6:23 PM PST
Astronomical Twilight 5:27 AM PST 6:52 PM PST
Moon 11:19 PM PST (2/1) 9:47 AM PST (2/1)
Length of Visible Light 11h 26m
Length of Day
10h 33m
Waning Gibbous, 69% of the Moon is Illuminated
Feb 1
Waning Gibbous
Feb 3
Last Quarter
Feb 9
New
Feb 17
First Quarter
Feb 25
Full

Hourly Weather History & Observations

Time (PST) Temp. Dew Point Humidity Pressure Visibility Wind Dir Wind Speed Gust Speed Precip Events Conditions
12:55 AM 48.9 °F 42.1 °F 77% 30.15 in 10.0 mi ENE 3.5 mph - N/A   Clear
1:55 AM 48.0 °F 41.0 °F 77% 30.15 in 10.0 mi Calm Calm - N/A   Clear
3:55 AM 50.0 °F 37.9 °F 63% 30.15 in 10.0 mi Calm Calm - N/A   Clear
4:55 AM 52.0 °F 37.0 °F 57% 30.14 in 10.0 mi Calm Calm - N/A   Clear
5:55 AM 46.9 °F 37.0 °F 68% 30.16 in 10.0 mi Calm Calm - N/A   Clear
7:55 AM 51.1 °F 41.0 °F 68% 30.17 in 10.0 mi Calm Calm - N/A   Clear
8:55 AM 63.0 °F 41.0 °F 45% 30.16 in 10.0 mi Calm Calm - N/A   Clear
9:55 AM 72.0 °F 39.9 °F 31% 30.16 in 10.0 mi NE 4.6 mph - N/A   Clear
10:55 AM 75.0 °F 42.1 °F 31% 30.16 in 10.0 mi Calm Calm - N/A   Clear
11:55 AM 66.0 °F 45.0 °F 47% 30.17 in 10.0 mi SSW 20.7 mph 25.3 mph N/A   Clear
12:55 PM 66.9 °F 46.9 °F 49% 30.17 in 10.0 mi WSW 8.1 mph - N/A   Clear
1:55 PM 68.0 °F 46.9 °F 47% 30.15 in 10.0 mi West 5.8 mph - N/A   Clear
2:55 PM 68.0 °F 44.1 °F 42% 30.14 in 10.0 mi SW 4.6 mph - N/A   Clear
3:55 PM 64.9 °F 48.0 °F 54% 30.15 in 10.0 mi West 6.9 mph - N/A   Clear
4:55 PM 64.0 °F 45.0 °F 50% 30.14 in 10.0 mi NW 3.5 mph - N/A   Clear
5:55 PM 59.0 °F 46.0 °F 62% 30.15 in 10.0 mi NW 3.5 mph - N/A   Clear
6:55 PM 57.0 °F 50.0 °F 77% 30.17 in 10.0 mi WNW 8.1 mph - N/A   Clear
7:55 PM 55.0 °F 50.0 °F 83% 30.18 in 10.0 mi West 5.8 mph - N/A   Clear
8:55 PM 54.0 °F 50.0 °F 86% 30.19 in 10.0 mi Calm Calm - N/A   Clear
9:55 PM 53.1 °F 48.9 °F 86% 30.20 in 8.0 mi Calm Calm - N/A   Clear
10:55 PM 52.0 °F 48.9 °F 89% 30.20 in 6.0 mi Calm Calm - N/A   Clear
11:55 PM 54.0 °F 46.9 °F 77% 30.19 in 10.0 mi East 3.5 mph - N/A   Clear